Location: Central Coast
(33.3208°S, 151.2336°E)
Time: 18:18:53
(UTC+11:00)

N. Korean satellite - Pass Details

Date: 11 October 2017
Orbit: 459 x 517 km, 97.2° (Epoch: 18 October)

Event Time Altitude Azimuth Distance (km) Brightness Sun altitude
Rises 19:29:08 0° 165° (SSE) 2,672 10.3 -5.8°
Reaches altitude 10° 19:31:17 10° 161° (SSE) 1,775 9.4 -6.3°
Maximum altitude 19:35:05 61° 80° (E) 594 6.7 -7.0°
Drops below altitude 10° 19:38:48 10° 359° (N) 1,735 9.2 -7.8°
Sets 19:40:53 0° 355° (N) 2,605 10.2 -8.2°
